User: anonymous   Login
Location: Newark
(58.8333°N, 23.5833°E)
Time: 19:30:30
(UTC+00:00)
Language:

S-56A Canister/Altair - Orbit

View from above orbital plane
View from above orbital plane
View from above satellite
View from above satellite

Ground track
Ground track

The orbit data is extracted from the following two-line orbital elements,

1    82U 61004B   19320.86510591 +.00000023 +00000-0 +62604-4 0  9998
2    82 038.8554 269.2483 1173615 132.7434 237.8215 12.26056086781591
Epoch (UTC): 16 November 2019 20:45:45
Eccentricity: 0.1173615
inclination: 38.8554°
perigee height: 634 km
apogee height: 2498 km
right ascension of ascending node: 269.2483°
argument of perigee: 132.7434°
revolutions per day: 12.26056086
mean anomaly at epoch: 237.8215°
orbit number at epoch: 78159

The dashed part of the orbit path shows where the satellite is in the earth's shadow,  

DLR